Location: Eckley
(40.9930°N, 75.8630°W)
Time: 12:18:28
(UTC-05:00)

Daily predictions for brighter satellites

Satellite Brightness Start Highest point End
(mag) Time Altitude Azimuth Time Altitude Azimuth Time Altitude Azimuth
Cosmos 1536 4.5 18:13:04 10° ESE 18:15:12 14° E 18:17:22 10° NE
Meteor 1-25 Rocket 4.3 18:13:08 10° S 18:18:44 89° E 18:24:28 10° N
Okean 1 3.4 18:15:43 10° N 18:19:45 57° E 18:23:45 10° SSE
Cosmos 1812 2.8 18:16:41 10° N 18:20:33 86° W 18:24:24 10° S
Cosmos 1633 3.4 18:17:39 10° SSE 18:20:54 30° E 18:24:08 10° NNE
Cosmos 1536 Rocket 3.8 18:18:05 10° N 18:22:28 52° E 18:26:49 10° SSE
Cosmos 1818 3.6 18:19:40 10° SSW 18:25:06 86° ESE 18:30:36 10° NNE
Cosmos 407 Rocket 3.6 18:21:18 10° SSW 18:26:32 84° WNW 18:31:53 10° NNE
Cosmos 2360 Rocket 2.5 18:22:21 10° NNW 18:27:49 48° ENE 18:33:16 10° SE
ASTRO F (AKARI) 4.4 18:24:44 10° NNE 18:28:19 79° ESE 18:31:41 10° S
Cosmos 2219 Rocket 3.8 18:25:52 10° NNE 18:28:59 15° NE 18:31:49 11° E
Cosmos 2219 4.3 18:24:53 10° SSE 18:29:18 23° E 18:33:43 10° NE
Cosmos 676 Rocket 3.9 18:25:56 10° S 18:31:05 74° ESE 18:36:19 10° NNE
DNEPR-1 R/B 4.1 18:27:41 10° NW 18:31:52 59° WSW 18:36:04 10° SSE
Nadezhda 1 Rocket 4.5 18:32:26 10° NNW 18:38:27 64° W 18:44:26 10° S
Meteor 1-11 Rocket 4.0 18:33:11 10° SSE 18:38:41 48° E 18:44:20 10° NNE
Cosmos 1461 4.1 18:40:43 10° NW 18:44:33 43° WSW 18:48:28 10° S
DELTA 2 R/B (1) 4.0 18:40:10 10° W 18:45:42 60° SSW 18:50:43 12° ESE
Cosmos 1140 Rocket 3.5 18:41:09 10° S 18:46:11 61° ESE 18:51:16 10° NNE
Cosmos 1602 3.6 18:45:24 10° S 18:49:14 67° E 18:53:07 10° NNE
Resurs 01 Rocket 2.1 18:45:16 10° SE 18:49:21 39° ENE 18:53:28 10° N
Cosmos 1300 Rocket 3.5 18:46:23 10° S 18:50:44 65° E 18:55:09 10° NNE
Cosmos 614 Rocket 4.0 18:49:08 10° S 18:54:04 53° ESE 18:59:00 10° NNE
COSMO-SKYMED 1 4.4 18:51:31 10° N 18:55:26 33° WNW 18:59:19 10° SW
Cosmos 1833 4.2 18:50:26 10° SSW 18:56:08 88° WNW 19:01:50 10° NNE
Abrixas rocket 3.5 18:53:25 10° SSW 18:56:10 24° SE 18:56:51 22° ESE
ALOS 2.2 18:52:41 10° SSE 18:57:18 65° ENE 19:01:56 10° N
Cosmos 2181 Rocket 4.0 18:52:14 10° N 18:58:31 80° E 19:04:51 10° S
Spot 2 Rocket 3.6 18:56:48 10° SSE 19:01:42 54° ENE 19:06:38 10° N
USA 229 DEB 4.3 18:55:54 10° NNW 19:02:35 41° NE 19:07:02 21° ESE
USA 229 4.3 18:56:00 10° NNW 19:02:40 41° NE 19:07:06 21° ESE
Cosmos 2333 Rocket 3.4 18:58:27 10° N 19:02:50 22° NE 19:04:11 20° ENE
SL-16 R/B 4.0 18:59:19 10° NW 19:04:22 34° WSW 19:09:24 10° SSW
Cosmos 2208 Rocket 4.3 18:59:40 10° N 19:04:58 49° ENE 19:09:51 12° SE
FREGAT/IRIS 3.5 19:02:01 10° S 19:05:01 52° W 19:08:03 10° NNW
Helios 1A 3.8 19:04:17 26° E 19:05:27 30° ENE 19:09:06 10° N
NOSS 8 (E) 4.4 19:03:03 10° SSW 19:06:30 83° ESE 19:09:17 17° NE
Cosmos 1340 3.3 19:03:11 10° NNW 19:06:56 58° W 19:10:38 10° S
Resurs 1-3 3.7 19:02:58 10° SSE 19:07:12 51° ENE 19:11:28 10° N
Cosmos 1709 Rocket 4.4 19:07:00 10° SSW 19:13:10 64° W 19:19:18 10° N
Cosmos 2074 Rocket 4.0 19:07:10 10° SSE 19:13:13 55° E 19:19:21 10° NNE
Cosmos 1850 Rocket 3.9 19:08:03 10° S 19:13:18 68° ESE 19:18:37 10° NNE
Cosmos 2184 Rocket 4.0 19:10:03 10° SSE 19:16:11 56° E 19:22:17 10° NNE
Envisat 4.0 19:18:30 25° ENE 19:18:30 25° ENE 19:22:20 10° NNE
Helios 1B rocket 2.9 19:14:25 10° NNE 19:18:17 37° E 19:22:08 10° SSE
FengYun 1-2 T 4.2 19:13:54 10° SSE 19:19:22 84° WSW 19:24:55 10° NNW
NOSS 8 (H) 4.3 19:17:14 10° SSW 19:20:36 83° ESE 19:21:51 37° NE
Intercosmos 24 4.4 19:16:50 10° S 19:20:55 59° E 19:26:44 10° NNE
HJ-1C 4.0 19:18:50 10° S 19:22:09 58° W 19:25:30 10° NNW
Okean 2 3.9 19:18:29 10° N 19:22:00 37° ENE 19:22:00 37° ENE
SJ-6B 4.3 19:19:46 10° SSW 19:23:32 39° W 19:27:15 10° NNW
Tiangong 2 3.6 19:23:14 10° WSW 19:25:07 15° SW 19:26:32 12° S
Okean 1 Rocket 3.4 19:21:06 10° SSW 19:25:34 69° W 19:30:03 10° N
SAR-Lupe-1 4.4 19:26:18 46° NE 19:26:18 46° NE 19:29:20 10° N
Meteor 1-5 Rocket 4.3 19:20:29 10° S 19:26:22 63° E 19:32:13 10° NNE
Genesis I 3.0 19:23:10 10° NNW 19:27:07 78° ENE 19:28:05 49° SE
FENGYUN 3A 3.9 19:21:51 10° S 19:27:13 71° WSW 19:32:40 10° NNW
SAR-Lupe-4 3.4 19:30:26 67° ESE 19:30:41 71° ENE 19:34:15 10° N
Nadezhda 3 Rocket 4.3 19:30:15 10° N 19:36:01 40° ENE 19:36:37 39° E
Gbstr 26 Del rocket 3.0 19:32:23 10° WSW 19:36:07 59° NNW 19:36:53 47° NNE
Cosmos 2322 4.4 19:31:43 10° NNW 19:37:17 54° WSW 19:42:48 10° S
GEOS 3 Rocket 3.9 19:39:42 12° NNE 19:44:31 66° NW 19:49:44 10° SW
CZ-2D R/B 3.4 19:43:32 41° S 19:44:45 72° WSW 19:48:34 10° NNW
Cosmos 2285 Rocket 3.9 19:38:18 10° NNW 19:44:45 71° ENE 19:47:50 33° SE
Cosmos 2154 Rocket 4.1 19:39:06 10° SSE 19:45:10 50° E 19:51:15 10° NNE
Cosmos 1025 Rocket 3.1 19:41:16 10° N 19:45:39 75° W 19:48:41 20° S
Cosmos 405 Rocket 4.2 19:42:55 10° N 19:45:01 28° NNE 19:45:01 28° NNE
GPS 2-04 Rocket1 4.0 19:43:04 10° SW 19:46:29 33° S 19:46:29 33° S
H-2A R/B 3.8 19:46:32 10° S 19:50:04 43° W 19:53:40 10° NNW
Meteor 2-13 Rocket 4.3 19:45:03 10° S 19:51:03 71° E 19:57:07 10° NNE
Cosmos 1536 4.2 19:47:33 10° SSW 19:51:17 38° WNW 19:55:02 10° N
COSMOS 2428 2.8 19:47:02 10° NNW 19:52:42 77° WSW 19:55:38 30° SSE
Cosmos 2333 4.2 19:48:21 10° NNW 19:54:07 86° WSW 19:56:21 39° SSE
Meteor 2-4 Rocket 4.5 19:49:30 10° NNW 19:54:51 50° W 20:00:02 10° SSW
Cosmos 2237 Rocket 2.9 19:51:30 10° N 19:55:53 37° NE 19:55:53 37° NE
NOSS 0 Rocket 3.8 20:02:18 10° NNW 20:08:24 67° ENE 20:08:24 67° ENE
Cosmos 2360 Rocket 4.3 20:07:02 10° NW 20:11:27 24° WSW 20:15:52 10° SSW
Cosmos 2219 4.0 20:07:30 10° SW 20:13:03 50° WNW 20:18:40 10° NNE
Cosmos 2219 Rocket 2.0 20:08:07 10° NNW 20:13:35 85° N 20:13:35 85° N
Resurs 01 Rocket 4.2 20:22:54 10° SW 20:25:58 19° W 20:29:05 10° NW
SL-16 R/B 4.0 20:25:13 10° N 20:27:19 20° N 20:27:19 20° N
BREEZE-M DEB (TANK) 4.3 20:30:18 10° WNW 20:34:27 71° SSW 20:35:01 68° S
Cosmos 2333 Rocket 3.0 20:41:52 10° NNW 20:46:14 49° WNW 20:46:14 49° WNW
USA 229 DEB 4.5 20:46:53 10° NW 20:53:40 47° WSW 20:54:32 45° SW
USA 229 4.4 20:46:58 10° NW 20:53:46 48° WSW 20:54:36 46° SW
NOSS 3-1 (A) 4.4 20:59:04 10° NNW 21:04:58 58° NNW 21:04:58 58° NNW
ATLAS 2AS CENTAUR R/B 4.3 21:05:15 10° NNW 21:10:18 29° N 21:10:18 29° N
